Flag for South Korea Weather past 2 weeks in Incheon, South Korea

Now
59 °F

Sunny.


Feels Like: 60 °F
Forecast: 49 / 66 °F
Wind: 3 mph from South

Location: Incheon International Airport

Current Time: Apr 25, 2015 at 9:58:24 AM

Latest Report: Apr 25, 2015 at 9:30 AM


Visibility: 10 mi

Pressure: 30.15 "Hg

Humidity: 42%

Dew point: 36 °F

Location of IncheonLocation

Historic Weather in Incheon — Graph

°F

Incheon temperature yesterday

Maximum temperature yesterday: 66 °F (at 2:30 PM)
Minimum temperature yesterday: 48 °F (at 4:30 AM)
Average temperature yesterday: 56 °F

Past Weeks' High & Low Weather Summary

 TemperatureHumidityPressure
High68 °F (Apr 18, 3:00 PM)94% (Apr 19, 10:30 AM)30.33 "Hg (Apr 19, 10:30 AM)
Low41 °F (Apr 18, 2:30 AM)11% (Apr 18, 1:00 PM)29.62 "Hg (Apr 20, 3:00 AM)
Average52 °F60%29.99 "Hg
* Reported Apr 10 8:00 AM — Apr 25 8:30 AM, Incheon, Weather by CustomWeather, © 2015

Note: Actual official high and low records may vary slightly from our data, if they occured in-between our weather recording intervals... More about our weather records

Advertising

Incheon weather history for previous 24 hours

 ConditionsComfort  
Time TempWeatherWind HumidityBarometerVisibility
8:30 AM
Sat, Apr 25
55 °FSunny.3 mph55%30.15 "Hg10 mi
8:00 AM54 °FSunny.6 mph67%30.15 "Hg10 mi
7:30 AM52 °FSunny.8 mph72%30.15 "Hg10 mi
7:00 AM50 °FSunny.6 mph71%30.15 "Hg10 mi
6:30 AM46 °FClear.5 mph76%30.12 "Hg10 mi
6:00 AM45 °FClear.2 mph71%30.12 "Hg10 mi
5:30 AM45 °FClear.1 mph71%30.12 "Hg10 mi
5:00 AM45 °FPassing clouds.3 mph71%30.12 "HgN/A
4:30 AM48 °FClear.3 mph58%30.12 "Hg10 mi
4:00 AM43 °FClear.3 mph71%30.12 "Hg10 mi
3:30 AM46 °FClear.3 mph62%30.12 "Hg10 mi
3:00 AM46 °FClear.2 mph62%30.12 "Hg10 mi
2:30 AM50 °FClear.1 mph43%30.12 "Hg10 mi
2:00 AM50 °FClear.3 mph47%30.12 "Hg10 mi
1:30 AM50 °FClear.5 mph54%30.12 "Hg10 mi
1:00 AM50 °FClear.2 mph58%30.15 "Hg10 mi
12:30 AM48 °FClear.1 mph62%30.15 "Hg10 mi
12:00 AM52 °FClear.2 mph47%30.12 "Hg10 mi
11:30 PM
Fri, Apr 24
50 °FPassing clouds.9 mph54%30.12 "HgN/A
11:00 PM52 °FClear.7 mph47%30.12 "Hg10 mi
10:30 PM52 °FPassing clouds.5 mph54%30.12 "HgN/A
10:00 PM54 °FClear.8 mph41%30.12 "Hg10 mi
9:30 PM54 °FClear.2 mph44%30.12 "Hg10 mi
9:00 PM52 °FClear.2 mph54%30.12 "Hg10 mi
8:30 PM54 °FPassing clouds.7 mph44%30.12 "HgN/A
8:00 PM55 °FClear.6 mph36%30.09 "Hg5 mi
7:30 PM57 °FClear.12 mph27%30.09 "Hg4 mi
7:00 PM55 °FClear.16 mph38%30.09 "Hg4 mi
6:30 PM57 °FClear.15 mph44%30.09 "Hg4 mi
6:00 PM59 °FClear.12 mph39%30.09 "Hg4 mi
5:30 PM59 °FClear.14 mph39%30.07 "Hg4 mi
5:00 PM63 °FClear.15 mph27%30.07 "Hg4 mi
4:30 PM63 °FClear.12 mph30%30.07 "Hg4 mi
4:00 PM64 °FClear.14 mph26%30.07 "Hg4 mi
3:30 PM64 °FClear.15 mph30%30.07 "Hg4 mi
3:00 PM66 °FClear.12 mph32%30.09 "Hg4 mi
2:30 PM66 °FHaze.9 mph32%30.09 "Hg3 mi
2:00 PM64 °FHaze.10 mph32%30.09 "Hg3 mi
1:30 PM64 °FHaze.9 mph34%30.09 "Hg3 mi
1:00 PM64 °FHaze.12 mph34%30.12 "Hg3 mi
12:30 PM64 °FHaze.12 mph46%30.12 "Hg3 mi
12:00 PM63 °FHaze.7 mph49%30.12 "Hg3 mi
11:30 AM63 °FHaze.3 mph52%30.12 "Hg3 mi
11:00 AM63 °FHaze.6 mph32%30.12 "Hg3 mi
10:30 AM63 °FHaze.5 mph42%30.15 "Hg3 mi
10:00 AM61 °FHaze.3 mph52%30.15 "Hg3 mi
9:30 AM59 °FHaze.3 mph55%30.15 "Hg3 mi
9:00 AM57 °FHaze.2 mph59%30.15 "Hg3 mi
Weather by CustomWeather, © 2015

See weather overviewHow to use our weather pages